Location: Carthage
(33.8834°N, 106.6595°W)
Time: 02:49:20
(UTC+00:00)

Cosmos 2322 Rocket - Pass Details

Date: 22 May 2026
Orbit: 831 x 850 km, 71.0° (Epoch: 9 June)

Event Time Altitude Azimuth Distance (km) Brightness Sun altitude
Rises 05:20:07 0° 315° (NW) 3,409 6.4 -30.4°
Reaches altitude 10° 05:23:58 10° 289° (WNW) 2,471 5.1 -30.8°
Maximum altitude 05:26:28 13° 262° (W) 2,254 4.6 -31.0°
Enters shadow 05:27:41 12° 249° (WSW) 2,306 4.5 -31.1°
